Greenville, AL

10:56 AM CDT on June 27, 2017 (GMT -0500)
Greenville Municipal

Weather History for KPRN - October, 2013

Change the Weather History Date:

Sunday, October 6, 2013

  Actual Average Record
Temperature  
Mean Temperature 74 °F -  
Max Temperature 81 °F 82 °F 100 °F (1954)
Min Temperature 68 °F 56 °F 42 °F (1932)
Cooling Degree Days 10    
Growing Degree Days 24 (Base 50)    
Moisture  
Dew Point 69 °F    
Average Humidity 89    
Maximum Humidity 100    
Minimum Humidity 72    
Precipitation  
Precipitation 0.08 in - - ()
Sea Level Pressure  
Sea Level Pressure 29.90 in    
Wind  
Wind Speed 3 mph (SSE)    
Max Wind Speed 10 mph    
Max Gust Speed -    
Visibility 8 miles    
Events Fog , Rain    
Averages and records for this station are not official NWS values.
T = Trace of Precipitation, MM = Missing Value Source: NWS Daily Summary

Daily Weather History Graph

Daily Weather History Graph

Search for Another Location

Airport or City:

Trip Planner

Search our weather history database for the weather conditions in past years. The results will help you decide how hot, cold, wet, or windy it might be!

Date:

Astronomy

Oct. 06, 2013 Rise Set
Actual Time 6:43 AM CDT 6:24 PM CDT
Civil Twilight 6:19 AM CDT 6:49 PM CDT
Nautical Twilight 5:51 AM CDT 7:17 PM CDT
Astronomical Twilight 5:22 AM CDT 7:45 PM CDT
Moon 8:19 AM CDT (10/6) 7:32 PM CDT (10/6)
Length of Visible Light 12h 29m
Length of Day
11h 40m
Waxing Crescent, 3% of the Moon is Illuminated
Oct 6
Waxing Crescent
Oct 11
First Quarter
Oct 18
Full
Oct 26
Last Quarter
Nov 3
New

Hourly Weather History & Observations

Time (CDT) Temp. Heat Index Dew Point Humidity Pressure Visibility Wind Dir Wind Speed Gust Speed Precip Events Conditions
12:56 AM 71.1 °F - 68.0 °F 90% 29.95 in 10.0 mi Calm Calm - N/A   Partly Cloudy
1:56 AM 70.0 °F - 68.0 °F 93% 29.95 in 9.0 mi Calm Calm - N/A   Clear
2:56 AM 69.1 °F - 66.9 °F 93% 29.93 in 5.0 mi Calm Calm - N/A   Clear
3:22 AM 68.0 °F - 64.4 °F 88% 29.94 in 1.5 mi Calm Calm - N/A   Clear
3:35 AM 69.8 °F - 66.2 °F 88% 29.94 in 4.0 mi Calm Calm - N/A   Clear
3:56 AM 69.1 °F - 66.0 °F 90% 29.92 in 1.8 mi Calm Calm - N/A   Partly Cloudy
3:59 AM 68.0 °F - 66.2 °F 94% 29.93 in 0.8 mi Calm Calm - N/A   Mist
4:56 AM 68.0 °F - 66.9 °F 96% 29.92 in 0.2 mi Calm Calm - N/A Fog Fog
5:56 AM 68.0 °F - 66.9 °F 96% 29.93 in 0.2 mi East 3.5 mph - N/A Fog Fog
6:40 AM 68.0 °F - 66.2 °F 94% 29.95 in 1.8 mi ESE 4.6 mph - N/A   Overcast
6:47 AM 68.0 °F - 66.2 °F 94% 29.95 in 2.0 mi ESE 4.6 mph - N/A   Overcast
6:56 AM 69.1 °F - 68.0 °F 96% 29.94 in 3.0 mi SE 3.5 mph - N/A   Overcast
7:56 AM 70.0 °F - 69.1 °F 97% 29.93 in 5.0 mi ESE 4.6 mph - N/A   Partly Cloudy
8:42 AM 73.4 °F - 69.8 °F 88% 29.94 in 10.0 mi ESE 8.1 mph - N/A   Mostly Cloudy
8:56 AM 73.0 °F - 70.0 °F 90% 29.94 in 10.0 mi Variable 5.8 mph - N/A   Overcast
9:56 AM 78.1 °F - 71.1 °F 79% 29.93 in 10.0 mi SSE 8.1 mph - N/A   Overcast
10:20 AM 80.6 °F 84.6 °F 71.6 °F 74% 29.94 in 10.0 mi SSE 8.1 mph - N/A   Scattered Clouds
10:56 AM 80.1 °F 83.6 °F 71.1 °F 74% 29.91 in 10.0 mi SSE 6.9 mph - N/A   Scattered Clouds
11:17 AM 80.6 °F 84.6 °F 71.6 °F 74% 29.92 in 10.0 mi Variable 6.9 mph - N/A   Mostly Cloudy
11:24 AM 80.6 °F 84.6 °F 71.6 °F 74% 29.92 in 10.0 mi South 5.8 mph - N/A   Mostly Cloudy
11:35 AM 80.6 °F 84.6 °F 71.6 °F 74% 29.91 in 10.0 mi SSE 9.2 mph - N/A   Overcast
11:53 AM 80.6 °F 84.6 °F 71.6 °F 74% 29.91 in 10.0 mi SSE 10.4 mph - N/A   Mostly Cloudy
11:56 AM 81.0 °F 84.9 °F 71.1 °F 72% 29.89 in 10.0 mi SSE 5.8 mph - N/A   Mostly Cloudy
1:56 PM 78.1 °F - 70.0 °F 76% 29.86 in 10.0 mi South 6.9 mph - 0.00 in Rain Light Rain
2:56 PM 77.0 °F - 70.0 °F 79% 29.84 in 10.0 mi South 8.1 mph - 0.00 in   Scattered Clouds
4:32 PM 75.2 °F - 71.6 °F 89% 29.85 in 10.0 mi SSE 6.9 mph - 0.00 in   Mostly Cloudy
4:52 PM 73.4 °F - 71.6 °F 94% 29.85 in 10.0 mi SSE 6.9 mph - 0.00 in   Mostly Cloudy
4:56 PM 73.9 °F - 71.1 °F 91% 29.84 in 10.0 mi South 8.1 mph - 0.00 in   Mostly Cloudy
5:16 PM 73.4 °F - 71.6 °F 94% 29.85 in 4.0 mi SSE 5.8 mph - 0.04 in Rain Rain
5:37 PM 73.4 °F - 71.6 °F 94% 29.85 in 10.0 mi SSE 8.1 mph - 0.04 in Rain Light Rain
5:56 PM 72.0 °F - 71.1 °F 97% 29.84 in 10.0 mi SSE 4.6 mph - 0.05 in Rain Light Rain
6:56 PM 72.0 °F - 70.0 °F 93% 29.83 in 10.0 mi SSE 3.5 mph - 0.00 in   Mostly Cloudy
7:03 PM 71.6 °F - 69.8 °F 94% 29.84 in 10.0 mi SSE 4.6 mph - N/A   Scattered Clouds
7:42 PM 71.6 °F - 69.8 °F 94% 29.85 in 10.0 mi SE 3.5 mph - N/A   Overcast
7:56 PM 71.1 °F - 69.1 °F 93% 29.83 in 10.0 mi SE 4.6 mph - N/A   Overcast
9:52 PM 69.8 °F - 69.8 °F 100% 29.87 in 10.0 mi Calm Calm - N/A   Overcast
9:56 PM 70.0 °F - 69.1 °F 97% 29.86 in 10.0 mi Calm Calm - N/A   Overcast
10:56 PM 71.1 °F - 69.1 °F 93% 29.85 in 10.0 mi Calm Calm - N/A   Overcast
11:29 PM 71.6 °F - 69.8 °F 94% 29.86 in 5.0 mi Calm Calm - 0.03 in Rain Light Rain
11:56 PM 71.1 °F - 69.1 °F 93% 29.85 in 10.0 mi West 4.6 mph - 0.03 in   Overcast